Tracking 19800 objects as of 24-Jul-2019
HD Live streaming from Space Station
objects crossing your sky now

COSMOS 1528

Track COSMOS 1528 now!
10-day predictions
COSMOS 1528 is classified as:


NORAD ID: 14617
Int'l Code: 1984-001G
Perigee: 1,467.6 km
Apogee: 1,484.1 km
Inclination: 74.0 °
Period: 115.3 minutes
Semi major axis: 7846 km
RCS: 0.7124 m2 (medium)
Launch date: January 5, 1984
Source: Commonwealth of Independent States (former USSR) (CIS)
Launch site: PLESETSK MISSILE AND SPACE COMPLEX (PKMTR)
aabbcc
Your satellite tracking list
Your tracking list is empty




NASA's NSSDC Master Catalog

Two Line Element Set (TLE):
1 14617U 84001G   19204.66865323 -.00000010  00000-0  41922-4 0  9991
2 14617  74.0084  95.0003 0010492 245.8421 140.7663 12.48996236620907
Source of the keplerian elements: AFSPC